TimeCST,TemperatureF,Dew PointF,Humidity,Sea Level PressureIn,VisibilityMPH,Wind Direction,Wind SpeedMPH,Gust SpeedMPH,PrecipitationIn,Events,Conditions,WindDirDegrees,DateUTC
12:53 AM,26.1,24.1,92,30.39,6.0,Calm,Calm,-,N/A,,Clear,0,2012-11-28 06:53:00
1:53 AM,24.1,21.0,88,30.39,6.0,SW,3.5,-,N/A,,Clear,230,2012-11-28 07:53:00
2:53 AM,23.0,21.0,92,30.41,6.0,West,3.5,-,N/A,,Clear,260,2012-11-28 08:53:00
3:53 AM,23.0,21.0,92,30.41,6.0,Calm,Calm,-,N/A,,Clear,0,2012-11-28 09:53:00
4:53 AM,23.0,21.0,92,30.42,6.0,Calm,Calm,-,N/A,,Clear,0,2012-11-28 10:53:00
5:53 AM,23.0,19.9,88,30.43,7.0,East,3.5,-,N/A,,Clear,100,2012-11-28 11:53:00
6:53 AM,23.0,21.0,92,30.45,5.0,Calm,Calm,-,N/A,,Clear,0,2012-11-28 12:53:00
7:53 AM,26.1,24.1,92,30.47,5.0,Calm,Calm,-,N/A,,Clear,0,2012-11-28 13:53:00
8:53 AM,32.0,28.0,85,30.48,5.0,Calm,Calm,-,N/A,,Clear,0,2012-11-28 14:53:00
9:53 AM,37.0,30.9,79,30.48,8.0,Calm,Calm,-,N/A,,Clear,0,2012-11-28 15:53:00
10:53 AM,41.0,30.9,67,30.48,9.0,Calm,Calm,-,N/A,,Clear,0,2012-11-28 16:53:00
11:53 AM,46.0,25.0,44,30.46,10.0,Calm,Calm,-,N/A,,Clear,0,2012-11-28 17:53:00
12:53 PM,46.9,25.0,42,30.43,10.0,Calm,Calm,-,N/A,,Clear,0,2012-11-28 18:53:00
1:53 PM,48.9,26.1,41,30.41,10.0,Calm,Calm,-,N/A,,Clear,0,2012-11-28 19:53:00
2:53 PM,48.9,26.1,41,30.40,10.0,Calm,Calm,-,N/A,,Clear,0,2012-11-28 20:53:00
3:53 PM,46.9,28.9,50,30.40,10.0,Calm,Calm,-,N/A,,Clear,0,2012-11-28 21:53:00
4:53 PM,42.1,30.0,62,30.39,10.0,South,4.6,-,N/A,,Clear,190,2012-11-28 22:53:00
5:53 PM,37.9,28.0,68,30.40,10.0,South,4.6,-,N/A,,Clear,170,2012-11-28 23:53:00
6:53 PM,35.1,28.0,76,30.40,10.0,Calm,Calm,-,N/A,,Clear,0,2012-11-29 00:53:00
7:53 PM,32.0,27.0,82,30.40,10.0,Calm,Calm,-,N/A,,Clear,0,2012-11-29 01:53:00
8:53 PM,30.9,27.0,85,30.38,10.0,Calm,Calm,-,N/A,,Clear,0,2012-11-29 02:53:00
9:53 PM,30.0,26.1,85,30.38,9.0,Calm,Calm,-,N/A,,Clear,0,2012-11-29 03:53:00
10:53 PM,30.0,27.0,88,30.38,9.0,Calm,Calm,-,N/A,,Clear,0,2012-11-29 04:53:00
11:53 PM,28.9,26.1,89,30.37,8.0,Calm,Calm,-,N/A,,Clear,0,2012-11-29 05:53:00